Location: Rancho Del Sol Observatory
(38.7214°N, 120.6350°W)
Time: 12:08:12
(UTC-07:00)

Cosmos 2221 Rocket - Visible Passes

Search period start: 19 April 2015 00:00
Search period end: 29 April 2015 00:00
Orbit: 622 x 648 km, 82.5° (Epoch: 18 April)

Date Brightness Start Highest point End Pass type
(mag) Time Alt. Az. Time Alt. Az. Time Alt. Az.
19 Apr 4.2 20:30:56 10° SSW 20:35:24 63° W 20:39:56 10° N visible
20 Apr 5.8 20:54:00 10° SW 20:57:59 29° WNW 21:01:57 10° NNW visible
21 Apr 6.8 21:18:08 10° WSW 21:20:45 15° WNW 21:23:10 10° NW visible
23 Apr 5.5 20:22:52 10° SW 20:27:03 35° WNW 20:31:15 10° N visible
24 Apr 6.8 20:46:38 10° WSW 20:49:46 18° WNW 20:52:46 10° NNW visible
26 Apr 6.7 05:42:11 10° NNE 05:45:33 21° ENE 05:48:59 10° ESE visible
27 Apr 6.7 20:15:16 10° WSW 20:18:48 21° WNW 20:22:13 10° NNW visible
28 Apr 7.6 20:40:58 10° WNW 20:41:39 10° WNW 20:42:02 10° WNW visible
